Weather History for KDEC - August, 2014

Change the Weather History Date:

Friday, August 29, 2014

  Actual Average Record
Temperature  
Mean Temperature 80 °F 72 °F  
Max Temperature 89 °F 83 °F 99 °F (2007)
Min Temperature 71 °F 61 °F 53 °F (2004)
Degree Days  
Heating Degree Days 0 0  
Month to date heating degree days 0 0  
Since 1 June heating degree days 3 18  
Since 1 July heating degree days 2 1  
Cooling Degree Days 15 7  
Month to date cooling degree days 272 255  
Year to date cooling degree days 876 904  
Since 1 June cooling degree days 731 817  
Growing Degree Days 30 (Base 50)    
Moisture  
Dew Point 70 °F    
Average Humidity 72    
Maximum Humidity 93    
Minimum Humidity 50    
Precipitation  
Precipitation 0.00 in 0.14 in 0.02 in (2006)
Month to date precipitation 4.93 3.37  
Year to date precipitation 23.93 26.03  
Sea Level Pressure  
Sea Level Pressure 29.93 in    
Wind  
Wind Speed 8 mph (SSE)    
Max Wind Speed 17 mph    
Max Gust Speed 27 mph    
Visibility 10 miles    
Events      
T = Trace of Precipitation, MM = Missing Value Source: NWS Daily Summary

Daily Weather History Graph

Daily Weather History Graph

Search for Another Location

Airport or City:

Trip Planner

Search our weather history database for the weather conditions in past years. The results will help you decide how hot, cold, wet, or windy it might be!

Date:

Astronomy

Aug. 29, 2014 Rise Set
Actual Time 6:20 AM CDT 7:31 PM CDT
Civil Twilight 5:52 AM CDT 7:59 PM CDT
Nautical Twilight 5:19 AM CDT 8:32 PM CDT
Astronomical Twilight 4:44 AM CDT 9:07 PM CDT
Moon 10:09 AM CDT (8/29) 9:29 PM CDT (8/29)
Length of Visible Light 14h 06m
Length of Day
13h 10m
Waxing Crescent, 15% of the Moon is Illuminated
Aug 29
Waxing Crescent
Sep 2
First Quarter
Sep 8
Full
Sep 15
Last Quarter
Sep 24
New

Hourly Weather History & Observations

Time (CDT) Temp. Heat Index Dew Point Humidity Pressure Visibility Wind Dir Wind Speed Gust Speed Precip Events Conditions
12:54 AM 71.1 °F - 69.1 °F 93% 30.00 in 10.0 mi ENE 3.5 mph - 0.01 in   Partly Cloudy
1:54 AM 71.1 °F - 69.1 °F 93% 29.98 in 10.0 mi ESE 4.6 mph - N/A   Clear
2:54 AM 71.1 °F - 69.1 °F 93% 29.96 in 10.0 mi ESE 4.6 mph - N/A   Clear
3:54 AM 71.1 °F - 69.1 °F 93% 29.96 in 10.0 mi SE 4.6 mph - N/A   Clear
4:54 AM 72.0 °F - 69.1 °F 91% 29.96 in 10.0 mi SE 5.8 mph - N/A   Clear
5:54 AM 72.0 °F - 69.1 °F 91% 29.96 in 10.0 mi SE 6.9 mph - N/A   Clear
6:54 AM 73.0 °F - 70.0 °F 90% 29.98 in 9.0 mi SSE 3.5 mph - N/A   Mostly Cloudy
7:54 AM 73.0 °F - 70.0 °F 90% 29.98 in 7.0 mi SE 4.6 mph - N/A   Overcast
8:54 AM 73.9 °F - 71.1 °F 91% 29.99 in 9.0 mi SSE 5.8 mph - N/A   Overcast
9:54 AM 75.0 °F - 72.0 °F 90% 29.99 in 8.0 mi SSE 4.6 mph - N/A   Overcast
10:54 AM 81.0 °F 85.8 °F 73.0 °F 77% 29.99 in 10.0 mi South 6.9 mph - N/A   Partly Cloudy
11:54 AM 82.9 °F 88.8 °F 73.0 °F 72% 29.97 in 10.0 mi SW 6.9 mph - N/A   Mostly Cloudy
12:54 PM 86.0 °F 93.8 °F 73.9 °F 67% 29.94 in 10.0 mi SSW 8.1 mph - N/A   Mostly Cloudy
1:54 PM 86.0 °F 93.0 °F 73.0 °F 65% 29.92 in 10.0 mi South 12.7 mph - N/A   Scattered Clouds
2:54 PM 89.1 °F 93.7 °F 69.1 °F 52% 29.89 in 10.0 mi South 12.7 mph - N/A   Partly Cloudy
3:54 PM 88.0 °F 92.1 °F 69.1 °F 53% 29.87 in 10.0 mi South 10.4 mph - N/A   Partly Cloudy
4:54 PM 88.0 °F 90.7 °F 66.9 °F 49% 29.87 in 10.0 mi South 13.8 mph 21.9 mph N/A   Clear
5:54 PM 86.0 °F 90.1 °F 69.1 °F 57% 29.86 in 10.0 mi South 10.4 mph - N/A   Clear
6:54 PM 82.9 °F 87.0 °F 70.0 °F 65% 29.87 in 10.0 mi South 10.4 mph - N/A   Clear
7:54 PM 79.0 °F - 71.1 °F 77% 29.88 in 10.0 mi South 8.1 mph - N/A   Clear
8:54 PM 79.0 °F - 69.1 °F 72% 29.89 in 10.0 mi South 11.5 mph - N/A   Clear
9:54 PM 78.1 °F - 69.1 °F 74% 29.89 in 10.0 mi South 10.4 mph - N/A   Overcast
10:54 PM 77.0 °F - 69.1 °F 76% 29.90 in 10.0 mi South 9.2 mph - N/A   Mostly Cloudy
11:54 PM 78.1 °F - 69.1 °F 74% 29.90 in 10.0 mi South 11.5 mph - N/A   Mostly Cloudy